| time (UTC) | temp F | wind direction | speed MPH | gust MPH | rain 1hr in | rain 24hr in | rain mn in | humidity % | barometer mb |
| 20260507070504 | 42 | 323 | 1.0 | 7.0 | 0.00 | 0.00 | 0.00 | 80 | 1011.5 |
| 20260507070025 | 42 | 322 | 1.0 | 3.0 | 0.00 | 0.00 | 0.00 | 80 | 1011.5 |
| 20260507065526 | 42 | 320 | 1.0 | 7.0 | 0.00 | 0.00 | 0.00 | 80 | 1011.5 |
| 20260507065004 | 42 | 319 | 1.0 | 7.0 | 0.00 | 0.00 | 0.00 | 80 | 1011.6 |
| 20260507064504 | 42 | 318 | 1.0 | 3.0 | 0.00 | 0.00 | 0.00 | 80 | 1011.5 |
| 20260507064004 | 42 | 316 | 2.0 | 5.0 | 0.00 | 0.00 | 0.00 | 80 | 1011.5 |
| 20260507063504 | 42 | 331 | 2.0 | 5.0 | 0.00 | 0.00 | 0.00 | 80 | 1011.4 |
| 20260507063025 | 42 | 20 | 2.0 | 5.0 | 0.00 | 0.00 | 0.00 | 80 | 1011.4 |
| 20260507062504 | 42 | 10 | 3.0 | 5.0 | 0.00 | 0.00 | 0.00 | 80 | 1011.4 |
| 20260507062004 | 42 | 359 | 2.0 | 11.0 | 0.00 | 0.00 | 0.00 | 80 | 1011.5 |
| 20260507061504 | 42 | 349 | 0.0 | 4.0 | 0.00 | 0.00 | 0.00 | 80 | 1011.5 |
| 20260507061025 | 42 | 338 | 0.0 | 1.0 | 0.00 | 0.00 | 0.00 | 80 | 1011.2 |
| 20260507060504 | 42 | 340 | 0.0 | 3.0 | 0.00 | 0.00 | 0.00 | 79 | 1011.3 |
| 20260507060004 | 42 | 340 | 0.0 | 4.0 | 0.00 | 0.00 | 0.00 | 79 | 1011.3 |
| 20260507055504 | 42 | 338 | 1.0 | 3.0 | 0.00 | 0.01 | 0.00 | 79 | 1011.2 |
| 20260507055004 | 42 | 338 | 1.0 | 4.0 | 0.00 | 0.01 | 0.00 | 79 | 1011.3 |
| 20260507054525 | 42 | 338 | 1.0 | 3.0 | 0.00 | 0.01 | 0.00 | 80 | 1011.3 |
| 20260507054025 | 42 | 338 | 2.0 | 4.0 | 0.00 | 0.01 | 0.00 | 80 | 1011.3 |
| 20260507053504 | 42 | 339 | 2.0 | 5.0 | 0.00 | 0.01 | 0.00 | 80 | 1011.5 |
| 20260507053005 | 42 | 341 | 1.0 | 4.0 | 0.00 | 0.01 | 0.00 | 80 | 1011.4 |
| 20260507052504 | 42 | 342 | 2.0 | 4.0 | 0.00 | 0.01 | 0.00 | 80 | 1011.6 |
| 20260507052025 | 42 | 344 | 2.0 | 5.0 | 0.00 | 0.01 | 0.00 | 80 | 1011.6 |
| 20260507051525 | 42 | 347 | 2.0 | 4.0 | 0.00 | 0.01 | 0.00 | 80 | 1011.7 |
| 20260507051004 | 42 | 357 | 2.0 | 5.0 | 0.00 | 0.01 | 0.00 | 81 | 1011.6 |
| 20260507050525 | 42 | 14 | 2.0 | 7.0 | 0.00 | 0.01 | 0.00 | 81 | 1011.8 |
| 20260507050004 | 42 | 18 | 2.0 | 5.0 | 0.00 | 0.01 | 0.00 | 81 | 1011.9 |
| 20260507045504 | 42 | 18 | 1.0 | 3.0 | 0.00 | 0.01 | 0.00 | 81 | 1011.8 |
| 20260507045004 | 42 | 18 | 1.0 | 4.0 | 0.00 | 0.01 | 0.00 | 81 | 1011.7 |
| 20260507044503 | 42 | 19 | 1.0 | 5.0 | 0.00 | 0.01 | 0.00 | 81 | 1011.8 |
| 20260507044004 | 42 | 20 | 1.0 | 4.0 | 0.00 | 0.01 | 0.00 | 81 | 1011.8 |
| 20260507043504 | 41 | 20 | 1.0 | 4.0 | 0.00 | 0.02 | 0.00 | 81 | 1011.9 |
| 20260507043004 | 41 | 20 | 0.0 | 4.0 | 0.00 | 0.02 | 0.00 | 81 | 1011.9 |
| 20260507042504 | 41 | 0 | 0.0 | 0.0 | 0.00 | 0.02 | 0.00 | 81 | 1011.9 |
| 20260507042004 | 41 | 19 | 0.0 | 0.0 | 0.00 | 0.02 | 0.00 | 81 | 1012.0 |
| 20260507041504 | 40 | 19 | 0.0 | 4.0 | 0.00 | 0.02 | 0.00 | 81 | 1012.0 |
| 20260507041004 | 40 | 0 | 0.0 | 1.0 | 0.00 | 0.02 | 0.00 | 81 | 1012.1 |
| 20260507040525 | 40 | 0 | 0.0 | 0.0 | 0.00 | 0.02 | 0.00 | 81 | 1012.0 |
| 20260507040004 | 40 | 0 | 0.0 | 0.0 | 0.00 | 0.02 | 0.00 | 81 | 1012.1 |
| 20260507035504 | 40 | 0 | 0.0 | 0.0 | 0.00 | 0.02 | 0.02 | 81 | 1012.1 |
| 20260507035004 | 40 | 0 | 0.0 | 0.0 | 0.00 | 0.02 | 0.02 | 81 | 1012.1 |
| 20260507034504 | 40 | 0 | 0.0 | 0.0 | 0.00 | 0.02 | 0.02 | 80 | 1012.1 |
| 20260507034025 | 40 | 0 | 0.0 | 0.0 | 0.00 | 0.03 | 0.02 | 80 | 1012.1 |
| 20260507033503 | 40 | 0 | 0.0 | 0.0 | 0.00 | 0.03 | 0.02 | 79 | 1012.2 |
| 20260507033004 | 40 | 0 | 0.0 | 0.0 | 0.00 | 0.03 | 0.02 | 79 | 1012.3 |
| 20260507032504 | 40 | 0 | 0.0 | 0.0 | 0.00 | 0.03 | 0.02 | 79 | 1012.1 |
| 20260507032004 | 40 | 0 | 0.0 | 0.0 | 0.00 | 0.03 | 0.02 | 79 | 1012.2 |
| 20260507031504 | 40 | 0 | 0.0 | 0.0 | 0.00 | 0.03 | 0.02 | 79 | 1012.3 |
| 20260507031004 | 40 | 0 | 0.0 | 0.0 | 0.00 | 0.03 | 0.02 | 79 | 1012.4 |
| 20260507030503 | 40 | 0 | 0.0 | 0.0 | 0.00 | 0.03 | 0.02 | 79 | 1012.3 |
| 20260507030004 | 40 | 0 | 0.0 | 0.0 | 0.00 | 0.03 | 0.02 | 79 | 1012.3 |
| 20260507025504 | 40 | 0 | 0.0 | 0.0 | 0.00 | 0.03 | 0.02 | 79 | 1012.3 |
| 20260507025004 | 40 | 0 | 0.0 | 0.0 | 0.00 | 0.03 | 0.02 | 78 | 1012.3 |
| 20260507024503 | 40 | 0 | 0.0 | 0.0 | 0.00 | 0.03 | 0.02 | 77 | 1012.1 |
| 20260507024004 | 40 | 0 | 0.0 | 0.0 | 0.00 | 0.03 | 0.02 | 77 | 1012.1 |
| 20260507023524 | 40 | 0 | 0.0 | 0.0 | 0.00 | 0.03 | 0.02 | 74 | 1012.1 |
| 20260507023004 | 40 | 0 | 0.0 | 0.0 | 0.00 | 0.03 | 0.02 | 74 | 1012.1 |
| 20260507022503 | 40 | 0 | 0.0 | 0.0 | 0.00 | 0.03 | 0.02 | 73 | 1012.0 |
| 20260507022025 | 41 | 0 | 0.0 | 0.0 | 0.00 | 0.03 | 0.02 | 73 | 1012.1 |
| 20260507021503 | 41 | 0 | 0.0 | 0.0 | 0.00 | 0.03 | 0.02 | 73 | 1012.1 |
| 20260507021025 | 41 | 0 | 0.0 | 0.0 | 0.00 | 0.03 | 0.02 | 73 | 1012.1 |
| 20260507020503 | 42 | 0 | 0.0 | 0.0 | 0.00 | 0.03 | 0.02 | 73 | 1012.0 |
| 20260507020004 | 42 | 0 | 0.0 | 0.0 | 0.00 | 0.03 | 0.02 | 72 | 1012.1 |
| 20260507015504 | 42 | 0 | 0.0 | 0.0 | 0.00 | 0.03 | 0.02 | 71 | 1012.0 |
| 20260507015004 | 42 | 0 | 0.0 | 0.0 | 0.00 | 0.03 | 0.02 | 71 | 1012.0 |
| 20260507014504 | 42 | 0 | 0.0 | 0.0 | 0.00 | 0.03 | 0.02 | 70 | 1012.1 |
| 20260507014004 | 43 | 0 | 0.0 | 0.0 | 0.00 | 0.03 | 0.02 | 70 | 1012.0 |
| 20260507013503 | 43 | 0 | 0.0 | 0.0 | 0.00 | 0.03 | 0.02 | 70 | 1011.9 |
| 20260507013003 | 43 | 0 | 0.0 | 0.0 | 0.00 | 0.03 | 0.02 | 70 | 1012.0 |
| 20260507012504 | 44 | 0 | 0.0 | 0.0 | 0.00 | 0.03 | 0.02 | 70 | 1011.9 |
| 20260507012003 | 44 | 0 | 0.0 | 0.0 | 0.00 | 0.03 | 0.02 | 70 | 1012.0 |
| 20260507011504 | 44 | 0 | 0.0 | 0.0 | 0.00 | 0.03 | 0.02 | 70 | 1012.1 |
| 20260507010503 | 45 | 0 | 0.0 | 0.0 | 0.00 | 0.03 | 0.02 | 68 | 1012.1 |
| 20260507010024 | 45 | 0 | 0.0 | 0.0 | 0.00 | 0.03 | 0.02 | 67 | 1012.1 |
| 20260507005503 | 45 | 0 | 0.0 | 0.0 | 0.00 | 0.03 | 0.02 | 66 | 1012.2 |
| 20260507005004 | 46 | 0 | 0.0 | 0.0 | 0.00 | 0.03 | 0.02 | 64 | 1012.1 |
| 20260507004503 | 46 | 0 | 0.0 | 0.0 | 0.00 | 0.03 | 0.02 | 63 | 1012.1 |
| 20260507004003 | 46 | 0 | 0.0 | 0.0 | 0.00 | 0.03 | 0.02 | 63 | 1012.1 |
| 20260507003503 | 47 | 0 | 0.0 | 0.0 | 0.00 | 0.03 | 0.02 | 62 | 1012.1 |
| 20260507003003 | 47 | 0 | 0.0 | 0.0 | 0.00 | 0.03 | 0.02 | 62 | 1012.1 |
| 20260507002503 | 47 | 0 | 0.0 | 0.0 | 0.00 | 0.03 | 0.02 | 61 | 1012.0 |
| 20260507002004 | 48 | 0 | 0.0 | 0.0 | 0.00 | 0.03 | 0.02 | 61 | 1011.9 |
| 20260507001503 | 48 | 0 | 0.0 | 0.0 | 0.00 | 0.03 | 0.02 | 60 | 1011.9 |
| 20260507001003 | 48 | 7 | 0.0 | 0.0 | 0.00 | 0.03 | 0.02 | 60 | 1011.8 |
| 20260507000503 | 48 | 10 | 1.0 | 3.0 | 0.00 | 0.03 | 0.02 | 60 | 1011.8 |
| 20260507000024 | 48 | 13 | 1.0 | 5.0 | 0.00 | 0.03 | 0.02 | 59 | 1011.7 |
| 20260506235503 | 49 | 17 | 2.0 | 5.0 | 0.00 | 0.03 | 0.02 | 59 | 1011.7 |
| 20260506235003 | 49 | 17 | 2.0 | 5.0 | 0.00 | 0.03 | 0.02 | 58 | 1011.7 |
| 20260506234503 | 49 | 17 | 2.0 | 5.0 | 0.00 | 0.03 | 0.02 | 59 | 1011.7 |
| 20260506234003 | 49 | 18 | 2.0 | 5.0 | 0.00 | 0.03 | 0.02 | 59 | 1011.6 |
| 20260506233503 | 49 | 17 | 2.0 | 5.0 | 0.00 | 0.03 | 0.02 | 58 | 1011.7 |
| 20260506233024 | 49 | 11 | 3.0 | 5.0 | 0.00 | 0.03 | 0.02 | 58 | 1011.7 |
| 20260506232524 | 50 | 12 | 3.0 | 7.0 | 0.00 | 0.03 | 0.02 | 57 | 1011.8 |
| 20260506232003 | 50 | 11 | 3.0 | 8.0 | 0.00 | 0.03 | 0.02 | 57 | 1011.7 |
| 20260506231503 | 50 | 356 | 4.0 | 7.0 | 0.00 | 0.03 | 0.02 | 57 | 1011.8 |
| 20260506231003 | 50 | 355 | 3.0 | 12.0 | 0.00 | 0.03 | 0.02 | 57 | 1011.9 |
| 20260506230503 | 51 | 7 | 3.0 | 11.0 | 0.00 | 0.03 | 0.02 | 57 | 1011.9 |
| 20260506230003 | 51 | 16 | 2.0 | 7.0 | 0.00 | 0.03 | 0.02 | 56 | 1011.9 |
| 20260506225503 | 51 | 9 | 3.0 | 9.0 | 0.00 | 0.03 | 0.02 | 55 | 1012.0 |
| 20260506225003 | 52 | 1 | 4.0 | 12.0 | 0.00 | 0.03 | 0.02 | 55 | 1012.0 |
| 20260506224524 | 52 | 360 | 4.0 | 12.0 | 0.00 | 0.03 | 0.02 | 55 | 1011.9 |
| 20260506224003 | 52 | 360 | 4.0 | 8.0 | 0.00 | 0.03 | 0.02 | 56 | 1011.9 |
| 20260506223503 | 51 | 2 | 4.0 | 12.0 | 0.00 | 0.03 | 0.02 | 57 | 1012.1 |
| 20260506223003 | 51 | 11 | 4.0 | 7.0 | 0.00 | 0.03 | 0.02 | 57 | 1012.0 |
| 20260506222504 | 51 | 11 | 5.0 | 13.0 | 0.00 | 0.03 | 0.02 | 56 | 1011.9 |
| 20260506222003 | 50 | 7 | 4.0 | 11.0 | 0.00 | 0.03 | 0.02 | 57 | 1011.8 |
| 20260506221504 | 50 | 1 | 4.0 | 12.0 | 0.00 | 0.03 | 0.02 | 56 | 1011.9 |
| 20260506221003 | 50 | 358 | 3.0 | 9.0 | 0.00 | 0.03 | 0.02 | 56 | 1011.8 |
| 20260506220504 | 50 | 360 | 4.0 | 7.0 | 0.00 | 0.03 | 0.02 | 56 | 1011.8 |
| 20260506220003 | 51 | 359 | 6.0 | 13.0 | 0.00 | 0.03 | 0.02 | 56 | 1011.8 |
| 20260506215503 | 51 | 358 | 6.0 | 19.0 | 0.00 | 0.03 | 0.02 | 55 | 1011.7 |
| 20260506215004 | 50 | 4 | 5.0 | 12.0 | 0.00 | 0.03 | 0.02 | 55 | 1011.7 |
| 20260506214503 | 50 | 2 | 4.0 | 15.0 | 0.00 | 0.03 | 0.02 | 56 | 1011.7 |
| 20260506214024 | 50 | 349 | 4.0 | 8.0 | 0.00 | 0.03 | 0.02 | 56 | 1011.6 |
| 20260506213504 | 50 | 355 | 5.0 | 13.0 | 0.00 | 0.03 | 0.02 | 56 | 1011.5 |
| 20260506213003 | 50 | 360 | 5.0 | 11.0 | 0.00 | 0.03 | 0.02 | 55 | 1011.5 |
| 20260506212503 | 51 | 360 | 5.0 | 11.0 | 0.00 | 0.03 | 0.02 | 55 | 1011.4 |
| 20260506212003 | 51 | 360 | 5.0 | 13.0 | 0.00 | 0.03 | 0.02 | 55 | 1011.5 |
| 20260506211503 | 51 | 360 | 5.0 | 11.0 | 0.00 | 0.03 | 0.02 | 55 | 1011.5 |
| 20260506211003 | 51 | 360 | 6.0 | 12.0 | 0.00 | 0.03 | 0.02 | 53 | 1011.4 |
| 20260506210503 | 51 | 360 | 5.0 | 13.0 | 0.00 | 0.03 | 0.02 | 55 | 1011.5 |
| 20260506210004 | 51 | 360 | 5.0 | 13.0 | 0.00 | 0.03 | 0.02 | 33 | 1011.4 |
| 20260506205503 | 50 | 360 | 5.0 | 8.0 | 0.00 | 0.03 | 0.02 | 33 | 1011.4 |
| 20260506205003 | 51 | 360 | 5.0 | 16.0 | 0.00 | 0.03 | 0.02 | 53 | 1011.4 |
| 20260506204503 | 51 | 360 | 5.0 | 11.0 | 0.00 | 0.03 | 0.02 | 56 | 1011.4 |
| 20260506204024 | 51 | 360 | 6.0 | 15.0 | 0.00 | 0.03 | 0.02 | 57 | 1011.2 |
| 20260506203524 | 49 | 360 | 6.0 | 13.0 | 0.00 | 0.03 | 0.02 | 60 | 1011.2 |
| 20260506203003 | 49 | 358 | 7.0 | 15.0 | 0.00 | 0.03 | 0.02 | 60 | 1011.2 |
| 20260506202503 | 49 | 356 | 5.0 | 16.0 | 0.00 | 0.03 | 0.02 | 60 | 1011.2 |
| 20260506202003 | 49 | 8 | 6.0 | 12.0 | 0.00 | 0.03 | 0.02 | 60 | 1011.3 |
| 20260506201504 | 48 | 21 | 5.0 | 15.0 | 0.00 | 0.03 | 0.02 | 60 | 1011.3 |
| 20260506201004 | 48 | 18 | 5.0 | 12.0 | 0.00 | 0.03 | 0.02 | 63 | 1011.1 |
| 20260506200524 | 48 | 9 | 6.0 | 16.0 | 0.00 | 0.03 | 0.02 | 41 | 1011.2 |
| 20260506200024 | 48 | 8 | 7.0 | 20.0 | 0.00 | 0.03 | 0.02 | 40 | 1011.3 |
| 20260506195524 | 47 | 6 | 7.0 | 20.0 | 0.00 | 0.03 | 0.02 | 62 | 1011.2 |
| 20260506195003 | 47 | 4 | 6.0 | 13.0 | 0.00 | 0.03 | 0.02 | 63 | 1011.4 |
| 20260506194524 | 47 | 3 | 7.0 | 17.0 | 0.00 | 0.03 | 0.02 | 63 | 1011.4 |
| 20260506194024 | 47 | 360 | 7.0 | 19.0 | 0.00 | 0.03 | 0.02 | 63 | 1011.4 |
| 20260506193524 | 48 | 359 | 7.0 | 15.0 | 0.00 | 0.03 | 0.02 | 62 | 1011.3 |
| 20260506193003 | 48 | 360 | 7.0 | 19.0 | 0.00 | 0.03 | 0.02 | 61 | 1011.3 |
| 20260506192504 | 48 | 359 | 7.0 | 19.0 | 0.00 | 0.03 | 0.02 | 63 | 1011.3 |
| 20260506192003 | 48 | 360 | 8.0 | 21.0 | 0.00 | 0.03 | 0.02 | 62 | 1011.4 |
| 20260506191504 | 48 | 360 | 7.0 | 20.0 | 0.00 | 0.03 | 0.02 | 63 | 1011.3 |
| 20260506191003 | 47 | 6 | 8.0 | 17.0 | 0.00 | 0.03 | 0.02 | 63 | 1011.4 |
| 20260506190503 | 47 | 10 | 8.0 | 19.0 | 0.00 | 0.03 | 0.02 | 63 | 1011.3 |
| 20260506190003 | 47 | 1 | 7.0 | 19.0 | 0.00 | 0.03 | 0.02 | 63 | 1011.5 |
| 20260506185503 | 48 | 1 | 7.0 | 19.0 | 0.00 | 0.04 | 0.02 | 63 | 1011.5 |
| 20260506185003 | 48 | 359 | 9.0 | 19.0 | 0.00 | 0.04 | 0.02 | 62 | 1011.5 |
| 20260506184503 | 48 | 348 | 9.0 | 20.0 | 0.00 | 0.05 | 0.02 | 63 | 1011.6 |
| 20260506184003 | 48 | 345 | 8.0 | 23.0 | 0.00 | 0.06 | 0.02 | 63 | 1011.6 |
| 20260506183503 | 47 | 346 | 7.0 | 17.0 | 0.00 | 0.06 | 0.02 | 63 | 1011.5 |
| 20260506183003 | 47 | 352 | 6.0 | 15.0 | 0.00 | 0.06 | 0.02 | 64 | 1011.4 |
| 20260506182503 | 47 | 3 | 8.0 | 19.0 | 0.00 | 0.06 | 0.02 | 63 | 1011.4 |
| 20260506182003 | 48 | 2 | 8.0 | 19.0 | 0.00 | 0.06 | 0.02 | 62 | 1011.3 |
| 20260506181503 | 48 | 3 | 8.0 | 16.0 | 0.00 | 0.06 | 0.02 | 63 | 1011.2 |
| 20260506181004 | 48 | 4 | 7.0 | 20.0 | 0.00 | 0.06 | 0.02 | 63 | 1010.9 |
| 20260506180504 | 48 | 1 | 7.0 | 15.0 | 0.00 | 0.07 | 0.02 | 63 | 1010.9 |
| 20260506180005 | 49 | 359 | 8.0 | 16.0 | 0.00 | 0.07 | 0.02 | 62 | 1010.8 |
| 20260506175504 | 49 | 3 | 8.0 | 17.0 | 0.00 | 0.07 | 0.02 | 62 | 1010.7 |
| 20260506175025 | 50 | 360 | 8.0 | 17.0 | 0.00 | 0.07 | 0.02 | 62 | 1010.7 |
| 20260506174505 | 50 | 359 | 8.0 | 17.0 | 0.00 | 0.07 | 0.02 | 63 | 1010.6 |
| 20260506174004 | 50 | 9 | 9.0 | 24.0 | 0.00 | 0.07 | 0.02 | 62 | 1010.7 |
| 20260506173525 | 50 | 5 | 8.0 | 17.0 | 0.00 | 0.07 | 0.02 | 62 | 1010.7 |
| 20260506173005 | 51 | 350 | 8.0 | 19.0 | 0.00 | 0.07 | 0.02 | 63 | 1010.7 |
| 20260506172504 | 51 | 345 | 8.0 | 19.0 | 0.00 | 0.07 | 0.02 | 62 | 1010.7 |
| 20260506172005 | 51 | 356 | 8.0 | 21.0 | 0.00 | 0.07 | 0.02 | 62 | 1010.6 |
| 20260506171504 | 52 | 356 | 7.0 | 15.0 | 0.00 | 0.07 | 0.02 | 62 | 1010.6 |
| 20260506171005 | 52 | 346 | 7.0 | 17.0 | 0.00 | 0.07 | 0.02 | 62 | 1010.6 |
| 20260506170504 | 52 | 355 | 6.0 | 16.0 | 0.00 | 0.07 | 0.02 | 62 | 1010.4 |
| 20260506170004 | 52 | 358 | 7.0 | 16.0 | 0.00 | 0.07 | 0.02 | 63 | 1010.4 |
| 20260506165504 | 52 | 5 | 9.0 | 19.0 | 0.00 | 0.07 | 0.02 | 62 | 1010.3 |
| 20260506165005 | 53 | 8 | 8.0 | 23.0 | 0.00 | 0.07 | 0.02 | 63 | 1010.2 |
| 20260506164504 | 53 | 5 | 6.0 | 16.0 | 0.00 | 0.07 | 0.02 | 63 | 1010.2 |
| 20260506164004 | 53 | 4 | 6.0 | 19.0 | 0.00 | 0.07 | 0.02 | 63 | 1010.4 |
| 20260506163504 | 53 | 2 | 7.0 | 13.0 | 0.00 | 0.07 | 0.02 | 64 | 1010.5 |
| 20260506163004 | 53 | 2 | 7.0 | 20.0 | 0.00 | 0.07 | 0.02 | 64 | 1010.5 |
| 20260506162504 | 53 | 3 | 8.0 | 17.0 | 0.00 | 0.07 | 0.02 | 64 | 1010.5 |
| 20260506162005 | 53 | 357 | 8.0 | 19.0 | 0.00 | 0.07 | 0.02 | 64 | 1010.3 |
| 20260506161505 | 53 | 344 | 7.0 | 16.0 | 0.00 | 0.07 | 0.02 | 64 | 1010.2 |
| 20260506161004 | 53 | 344 | 7.0 | 17.0 | 0.00 | 0.07 | 0.02 | 64 | 1010.2 |
| 20260506160504 | 53 | 342 | 7.0 | 17.0 | 0.00 | 0.07 | 0.02 | 67 | 1010.1 |
| 20260506160004 | 53 | 336 | 7.0 | 15.0 | 0.00 | 0.07 | 0.02 | 66 | 1010.2 |
| 20260506155505 | 53 | 351 | 7.0 | 17.0 | 0.00 | 0.07 | 0.02 | 67 | 1010.1 |
| 20260506155004 | 53 | 4 | 6.0 | 17.0 | 0.00 | 0.07 | 0.02 | 67 | 1010.0 |
| 20260506154504 | 53 | 8 | 6.0 | 16.0 | 0.00 | 0.07 | 0.02 | 67 | 1010.0 |
| 20260506154004 | 53 | 15 | 5.0 | 15.0 | 0.00 | 0.07 | 0.02 | 67 | 1009.9 |
| 20260506153504 | 53 | 13 | 5.0 | 19.0 | 0.00 | 0.07 | 0.02 | 68 | 1009.9 |
| 20260506153004 | 52 | 10 | 6.0 | 17.0 | 0.00 | 0.07 | 0.02 | 68 | 1009.9 |
| 20260506152504 | 52 | 8 | 6.0 | 16.0 | 0.00 | 0.07 | 0.02 | 70 | 1009.8 |
| 20260506152004 | 52 | 4 | 6.0 | 12.0 | 0.00 | 0.07 | 0.02 | 71 | 1009.8 |
| 20260506151505 | 52 | 10 | 5.0 | 13.0 | 0.00 | 0.07 | 0.02 | 72 | 1009.7 |
| 20260506151004 | 52 | 9 | 5.0 | 21.0 | 0.00 | 0.07 | 0.02 | 50 | 1009.7 |
| 20260506150525 | 51 | 356 | 5.0 | 12.0 | 0.00 | 0.07 | 0.02 | 73 | 1009.8 |
| 20260506150005 | 51 | 349 | 5.0 | 16.0 | 0.00 | 0.07 | 0.02 | 72 | 1009.7 |
| 20260506145504 | 51 | 351 | 6.0 | 15.0 | 0.00 | 0.07 | 0.02 | 74 | 1009.7 |
| 20260506145025 | 51 | 346 | 6.0 | 15.0 | 0.00 | 0.07 | 0.02 | 74 | 1009.4 |
| 20260506144504 | 51 | 348 | 5.0 | 11.0 | 0.00 | 0.07 | 0.02 | 75 | 1009.4 |
| 20260506144004 | 50 | 5 | 6.0 | 11.0 | 0.00 | 0.07 | 0.02 | 75 | 1009.3 |
| 20260506143504 | 50 | 9 | 6.0 | 15.0 | 0.00 | 0.07 | 0.02 | 77 | 1009.3 |
| 20260506143004 | 50 | 350 | 5.0 | 15.0 | 0.00 | 0.07 | 0.02 | 77 | 1009.3 |
| 20260506142504 | 50 | 338 | 4.0 | 12.0 | 0.00 | 0.07 | 0.02 | 77 | 1009.1 |
| 20260506142004 | 49 | 360 | 5.0 | 8.0 | 0.00 | 0.07 | 0.02 | 77 | 1009.1 |
| 20260506141504 | 48 | 354 | 5.0 | 13.0 | 0.00 | 0.07 | 0.02 | 77 | 1009.0 |
| 20260506141004 | 48 | 354 | 5.0 | 12.0 | 0.00 | 0.07 | 0.02 | 77 | 1009.0 |
| 20260506140505 | 47 | 11 | 6.0 | 15.0 | 0.00 | 0.07 | 0.02 | 77 | 1008.9 |
| 20260506140004 | 47 | 10 | 6.0 | 19.0 | 0.00 | 0.07 | 0.02 | 77 | 1008.6 |
| 20260506135505 | 46 | 7 | 5.0 | 19.0 | 0.00 | 0.07 | 0.02 | 75 | 1008.5 |
| 20260506135004 | 46 | 5 | 6.0 | 12.0 | 0.00 | 0.07 | 0.02 | 75 | 1008.5 |
| 20260506134525 | 45 | 356 | 5.0 | 13.0 | 0.00 | 0.07 | 0.02 | 75 | 1008.5 |
| 20260506134005 | 45 | 341 | 5.0 | 12.0 | 0.00 | 0.07 | 0.02 | 75 | 1008.4 |
| 20260506133504 | 44 | 346 | 5.0 | 13.0 | 0.00 | 0.07 | 0.02 | 75 | 1008.5 |
| 20260506133025 | 44 | 343 | 4.0 | 12.0 | 0.00 | 0.07 | 0.02 | 75 | 1008.6 |
| 20260506132504 | 44 | 336 | 3.0 | 11.0 | 0.00 | 0.07 | 0.02 | 75 | 1008.4 |
| 20260506132005 | 44 | 343 | 3.0 | 11.0 | 0.00 | 0.07 | 0.02 | 75 | 1008.5 |
| 20260506131504 | 44 | 333 | 4.0 | 5.0 | 0.00 | 0.07 | 0.02 | 77 | 1008.4 |
| 20260506131004 | 43 | 332 | 4.0 | 11.0 | 0.00 | 0.07 | 0.02 | 77 | 1008.5 |
| 20260506130504 | 43 | 327 | 3.0 | 8.0 | 0.00 | 0.07 | 0.02 | 77 | 1008.3 |
| 20260506130005 | 42 | 335 | 3.0 | 7.0 | 0.00 | 0.07 | 0.02 | 77 | 1008.3 |
| 20260506125504 | 42 | 353 | 3.0 | 7.0 | 0.00 | 0.07 | 0.02 | 77 | 1008.2 |
| 20260506125004 | 42 | 360 | 3.0 | 13.0 | 0.00 | 0.07 | 0.02 | 77 | 1008.2 |
| 20260506124504 | 42 | 360 | 3.0 | 11.0 | 0.00 | 0.07 | 0.02 | 77 | 1008.2 |
| 20260506124004 | 42 | 360 | 3.0 | 7.0 | 0.00 | 0.07 | 0.02 | 77 | 1008.1 |
| 20260506123504 | 42 | 360 | 3.0 | 8.0 | 0.00 | 0.07 | 0.02 | 77 | 1008.1 |
| 20260506123004 | 41 | 360 | 3.0 | 7.0 | 0.00 | 0.07 | 0.02 | 77 | 1008.0 |
| 20260506122504 | 41 | 360 | 3.0 | 7.0 | 0.00 | 0.07 | 0.02 | 77 | 1008.0 |
| 20260506122004 | 41 | 360 | 4.0 | 11.0 | 0.00 | 0.07 | 0.02 | 77 | 1008.0 |
| 20260506121504 | 41 | 360 | 3.0 | 11.0 | 0.00 | 0.07 | 0.02 | 77 | 1008.0 |
| 20260506121004 | 42 | 360 | 2.0 | 5.0 | 0.00 | 0.07 | 0.02 | 77 | 1008.1 |
| 20260506120525 | 42 | 360 | 2.0 | 8.0 | 0.00 | 0.07 | 0.02 | 77 | 1008.0 |
| 20260506120005 | 42 | 360 | 2.0 | 7.0 | 0.00 | 0.07 | 0.02 | 77 | 1008.0 |
| 20260506115504 | 42 | 360 | 2.0 | 7.0 | 0.00 | 0.07 | 0.02 | 77 | 1007.8 |
| 20260506115004 | 42 | 360 | 1.0 | 7.0 | 0.00 | 0.07 | 0.02 | 77 | 1007.8 |
| 20260506114504 | 42 | 360 | 1.0 | 5.0 | 0.00 | 0.07 | 0.02 | 77 | 1007.7 |
| 20260506114004 | 42 | 360 | 1.0 | 8.0 | 0.00 | 0.07 | 0.02 | 77 | 1007.7 |
| 20260506113504 | 42 | 360 | 1.0 | 4.0 | 0.00 | 0.07 | 0.02 | 77 | 1007.7 |
| 20260506113004 | 42 | 360 | 1.0 | 5.0 | 0.00 | 0.07 | 0.02 | 77 | 1007.6 |
| 20260506112525 | 42 | 360 | 2.0 | 5.0 | 0.00 | 0.07 | 0.02 | 77 | 1007.4 |
| 20260506112005 | 42 | 360 | 1.0 | 8.0 | 0.00 | 0.07 | 0.02 | 77 | 1007.4 |
| 20260506111504 | 42 | 360 | 1.0 | 5.0 | 0.00 | 0.07 | 0.02 | 77 | 1007.2 |
| 20260506111004 | 42 | 360 | 1.0 | 4.0 | 0.00 | 0.07 | 0.02 | 77 | 1007.0 |
| 20260506110504 | 42 | 360 | 1.0 | 4.0 | 0.00 | 0.07 | 0.02 | 77 | 1007.1 |
| 20260506110004 | 43 | 360 | 2.0 | 7.0 | 0.00 | 0.07 | 0.02 | 77 | 1007.0 |
| 20260506105504 | 43 | 360 | 1.0 | 5.0 | 0.00 | 0.07 | 0.02 | 77 | 1006.8 |
| 20260506105004 | 44 | 360 | 1.0 | 4.0 | 0.00 | 0.07 | 0.02 | 77 | 1006.8 |
| 20260506104504 | 44 | 360 | 1.0 | 7.0 | 0.00 | 0.07 | 0.02 | 77 | 1006.8 |
| 20260506104004 | 44 | 344 | 2.0 | 7.0 | 0.00 | 0.07 | 0.02 | 77 | 1006.8 |
| 20260506103504 | 45 | 301 | 1.0 | 8.0 | 0.00 | 0.07 | 0.02 | 77 | 1006.7 |
| 20260506103005 | 45 | 268 | 1.0 | 4.0 | 0.00 | 0.07 | 0.02 | 77 | 1006.7 |
| 20260506102504 | 45 | 266 | 1.0 | 4.0 | 0.00 | 0.07 | 0.02 | 77 | 1006.5 |
| 20260506102004 | 45 | 264 | 0.0 | 5.0 | 0.00 | 0.07 | 0.02 | 78 | 1006.4 |
| 20260506101525 | 46 | 258 | 0.0 | 3.0 | 0.00 | 0.07 | 0.02 | 78 | 1006.3 |
| 20260506101025 | 46 | 244 | 1.0 | 3.0 | 0.00 | 0.07 | 0.02 | 78 | 1006.4 |
| 20260506100504 | 46 | 234 | 1.0 | 5.0 | 0.00 | 0.07 | 0.02 | 78 | 1006.5 |
| 20260506100025 | 46 | 222 | 0.0 | 4.0 | 0.00 | 0.07 | 0.02 | 78 | 1006.4 |
| 20260506095504 | 46 | 218 | 0.0 | 1.0 | 0.00 | 0.07 | 0.02 | 78 | 1006.4 |
| 20260506095004 | 46 | 218 | 0.0 | 4.0 | 0.00 | 0.07 | 0.02 | 77 | 1006.5 |
| 20260506094504 | 46 | 218 | 0.0 | 1.0 | 0.00 | 0.07 | 0.02 | 77 | 1006.7 |
| 20260506094004 | 46 | 214 | 0.0 | 3.0 | 0.00 | 0.07 | 0.02 | 77 | 1006.8 |
| 20260506093504 | 46 | 209 | 0.0 | 4.0 | 0.00 | 0.07 | 0.02 | 77 | 1006.8 |
| 20260506093004 | 46 | 197 | 0.0 | 0.0 | 0.00 | 0.07 | 0.02 | 77 | 1006.5 |
| 20260506092504 | 46 | 195 | 1.0 | 3.0 | 0.00 | 0.07 | 0.02 | 77 | 1006.2 |
| 20260506092004 | 46 | 198 | 2.0 | 5.0 | 0.00 | 0.07 | 0.02 | 77 | 1006.0 |
| 20260506091525 | 46 | 209 | 2.0 | 7.0 | 0.00 | 0.07 | 0.02 | 77 | 1006.0 |
| 20260506091004 | 46 | 222 | 2.0 | 7.0 | 0.00 | 0.07 | 0.02 | 77 | 1005.9 |
| 20260506090504 | 46 | 222 | 1.0 | 4.0 | 0.00 | 0.07 | 0.02 | 77 | 1006.1 |
| 20260506090004 | 46 | 222 | 1.0 | 4.0 | 0.00 | 0.07 | 0.02 | 77 | 1006.5 |
| 20260506085504 | 46 | 221 | 2.0 | 4.0 | 0.00 | 0.07 | 0.02 | 77 | 1006.5 |
| 20260506085004 | 46 | 224 | 3.0 | 8.0 | 0.00 | 0.07 | 0.02 | 77 | 1006.7 |
| 20260506084525 | 46 | 228 | 3.0 | 8.0 | 0.00 | 0.07 | 0.02 | 77 | 1006.7 |
| 20260506084004 | 46 | 233 | 2.0 | 5.0 | 0.00 | 0.07 | 0.02 | 77 | 1006.8 |
| 20260506083525 | 46 | 234 | 1.0 | 5.0 | 0.00 | 0.07 | 0.02 | 77 | 1006.9 |
| 20260506083004 | 47 | 234 | 1.0 | 3.0 | 0.00 | 0.07 | 0.02 | 77 | 1006.9 |
| 20260506082504 | 47 | 234 | 1.0 | 5.0 | 0.00 | 0.07 | 0.02 | 77 | 1006.8 |
| 20260506082004 | 47 | 234 | 1.0 | 3.0 | 0.00 | 0.07 | 0.02 | 77 | 1006.8 |
| 20260506081504 | 47 | 235 | 1.0 | 3.0 | 0.00 | 0.07 | 0.02 | 77 | 1006.7 |
| 20260506081004 | 47 | 235 | 1.0 | 5.0 | 0.00 | 0.07 | 0.02 | 77 | 1006.8 |
| 20260506080504 | 47 | 235 | 0.0 | 3.0 | 0.00 | 0.07 | 0.02 | 77 | 1006.8 |
| 20260506073504 | 47 | 235 | 1.0 | 7.0 | 0.00 | 0.07 | 0.02 | 77 | 1007.0 |
| 20260506073004 | 47 | 236 | 0.0 | 4.0 | 0.00 | 0.07 | 0.02 | 77 | 1007.0 |
| 20260506072504 | 47 | 0 | 0.0 | 1.0 | 0.00 | 0.07 | 0.02 | 77 | 1007.2 |
| 20260506072004 | 47 | 236 | 0.0 | 0.0 | 0.00 | 0.07 | 0.02 | 77 | 1007.0 |
| 20260506071504 | 47 | 236 | 0.0 | 1.0 | 0.00 | 0.07 | 0.02 | 77 | 1006.9 |
| 20260506071025 | 47 | 235 | 0.0 | 3.0 | 0.00 | 0.07 | 0.02 | 77 | 1007.0 |